QPF
0.03 0.02 0.03 0.03 0.02 0.02 0.02 0.03 0.03 0.03 0.02 0.02 0.05 0.06 0.07 0.08 0.10 0.08 0.04 0.06 0.08 0.10 0.11 0.12 0.10 0.09 0.07 0.03 0.01 0.01 0.00 0.01 0.01 0.01 0.02 0.02 0.02 0.01
0.03 0.03 0.03 0.03 0.04 0.04 0.03 0.02 0.02 0.03 0.02 0.02 0.04 0.06 0.09 0.09 0.10 0.08 0.05 0.06 0.06 0.08 0.10 0.09 0.08 0.05 0.03 0.01 0.01 0.01 0.01 0.01 0.01 0.00 0.01 0.01 0.01 0.01
0.03 0.02 0.03 0.03 0.04 0.05 0.03 0.03 0.03 0.03 0.03 0.02 0.02 0.03 0.07 0.08 0.08 0.06 0.06 0.06 0.07 0.08 0.08 0.06 0.05 0.05 0.04 0.02 0.01 0.01 0.01 0.01 0.01 0.00 0.00 0.00 0.00 0.01
0.02 0.02 0.02 0.02 0.02 0.03 0.03 0.03 0.03 0.05 0.04 0.02 0.02 0.02 0.04 0.05 0.05 0.06 0.07 0.08 0.08 0.08 0.07 0.06 0.05 0.05 0.04 0.03 0.02 0.01 0.01 0.01 0.01 0.00 0.01 0.00 0.00 0.00
0.02 0.01 0.01 0.01 0.01 0.02 0.03 0.02 0.03 0.04 0.04 0.02 0.01 0.01 0.03 0.05 0.04 0.03 0.05 0.07 0.09 0.09 0.09 0.08 0.06 0.05 0.04 0.04 0.03 0.02 0.02 0.02 0.01 0.00 0.00 0.00 0.00 0.00
0.02 0.01 0.01 0.01 0.01 0.02 0.03 0.03 0.03 0.04 0.03 0.02 0.01 0.01 0.02 0.04 0.03 0.02 0.02 0.03 0.04 0.06 0.07 0.08 0.09 0.08 0.06 0.04 0.03 0.03 0.03 0.02 0.01 0.01 0.00 0.00 0.00 0.00
0.03 0.02 0.01 0.01 0.01 0.01 0.02 0.02 0.03 0.03 0.02 0.02 0.02 0.02 0.02 0.03 0.03 0.02 0.02 0.02 0.03 0.04 0.04 0.04 0.06 0.07 0.07 0.07 0.05 0.03 0.02 0.02 0.01 0.01 0.00 0.00 0.00 0.00
0.04 0.03 0.02 0.01 0.01 0.01 0.02 0.02 0.03 0.03 0.02 0.02 0.02 0.02 0.01 0.02 0.03 0.04 0.03 0.03 0.03 0.04 0.05 0.05 0.05 0.05 0.05 0.06 0.05 0.04 0.03 0.02 0.01 0.01 0.01 0.00 0.00 0.00
0.03 0.03 0.03 0.01 0.01 0.01 0.02 0.02 0.02 0.02 0.02 0.02 0.02 0.01 0.01 0.02 0.04 0.06 0.05 0.04 0.04 0.04 0.05 0.04 0.05 0.05 0.05 0.05 0.04 0.03 0.03 0.02 0.01 0.01 0.01 0.01 0.00 0.00
0.04 0.04 0.04 0.03 0.02 0.02 0.02 0.02 0.01 0.01 0.02 0.02 0.02 0.02 0.02 0.03 0.04 0.05 0.06 0.04 0.03 0.03 0.04 0.05 0.05 0.06 0.05 0.04 0.04 0.03 0.02 0.01 0.01 0.01 0.01 0.01 0.01 0.00
0.05 0.05 0.05 0.04 0.04 0.04 0.04 0.02 0.02 0.01 0.01 0.02 0.02 0.02 0.02 0.03 0.03 0.04 0.04 0.04 0.02 0.01 0.02 0.02 0.02 0.04 0.05 0.03 0.03 0.04 0.03 0.03 0.02 0.02 0.01 0.01 0.01 0.01
0.03 0.04 0.05 0.04 0.05 0.06 0.04 0.04 0.03 0.02 0.03 0.03 0.02 0.02 0.02 0.02 0.03 0.03 0.03 0.04 0.02 0.01 0.01 0.02 0.02 0.03 0.03 0.03 0.02 0.03 0.03 0.04 0.04 0.02 0.01 0.01 0.01 0.01
0.02 0.02 0.02 0.04 0.05 0.06 0.05 0.04 0.04 0.04 0.04 0.04 0.03 0.02 0.02 0.01 0.01 0.02 0.02 0.03 0.03 0.02 0.01 0.01 0.02 0.03 0.03 0.02 0.02 0.02 0.03 0.03 0.03 0.03 0.02 0.01 0.01 0.01
0.02 0.02 0.03 0.03 0.04 0.05 0.05 0.05 0.05 0.06 0.06 0.05 0.05 0.02 0.01 0.01 0.02 0.02 0.02 0.02 0.03 0.02 0.03 0.02 0.02 0.02 0.02 0.01 0.01 0.02 0.03 0.02 0.02 0.02 0.02 0.02 0.01 0.01
0.03 0.03 0.04 0.05 0.06 0.06 0.05 0.04 0.04 0.04 0.04 0.04 0.04 0.03 0.02 0.02 0.02 0.02 0.02 0.01 0.01 0.02 0.02 0.01 0.01 0.02 0.02 0.01 0.01 0.01 0.02 0.03 0.03 0.03 0.03 0.03 0.03 0.02
0.04 0.04 0.04 0.04 0.06 0.08 0.08 0.06 0.04 0.03 0.03 0.03 0.03 0.03 0.04 0.03 0.02 0.02 0.03 0.02 0.02 0.02 0.01 0.01 0.01 0.02 0.01 0.01 0.01 0.01 0.01 0.02 0.03 0.04 0.03 0.03 0.03 0.03
0.04 0.05 0.06 0.05 0.05 0.06 0.06 0.07 0.06 0.04 0.03 0.03 0.03 0.03 0.03 0.03 0.03 0.03 0.03 0.03 0.02 0.01 0.01 0.01 0.01 0.02 0.02 0.02 0.01 0.01 0.01 0.02 0.02 0.04 0.06 0.05 0.03 0.03
0.04 0.05 0.05 0.06 0.05 0.05 0.06 0.07 0.07 0.05 0.04 0.03 0.03 0.03 0.03 0.03 0.02 0.03 0.03 0.03 0.03 0.02 0.02 0.02 0.03 0.03 0.02 0.02 0.01 0.01 0.02 0.03 0.03 0.03 0.04 0.04 0.03 0.02
0.04 0.04 0.04 0.04 0.05 0.06 0.06 0.06 0.06 0.05 0.04 0.04 0.03 0.03 0.02 0.02 0.02 0.02 0.02 0.03 0.03 0.02 0.02 0.03 0.03 0.03 0.03 0.02 0.01 0.02 0.02 0.02 0.04 0.05 0.04 0.03 0.02 0.02
0.06 0.04 0.04 0.04 0.05 0.05 0.06 0.05 0.05 0.04 0.04 0.03 0.03 0.03 0.03 0.03 0.02 0.02 0.02 0.02 0.02 0.03 0.03 0.03 0.03 0.02 0.02 0.02 0.02 0.01 0.02 0.02 0.03 0.03 0.03 0.03 0.02 0.02
0.08 0.06 0.04 0.03 0.05 0.05 0.05 0.05 0.04 0.03 0.04 0.04 0.03 0.03 0.03 0.03 0.03 0.03 0.03 0.04 0.03 0.03 0.03 0.03 0.02 0.02 0.02 0.02 0.01 0.01 0.02 0.02 0.02 0.02 0.03 0.04 0.04 0.04
0.10 0.09 0.07 0.06 0.05 0.05 0.05 0.06 0.06 0.05 0.05 0.05 0.04 0.04 0.05 0.05 0.05 0.05 0.05 0.04 0.04 0.03 0.03 0.03 0.02 0.02 0.02 0.02 0.01 0.01 0.01 0.01 0.02 0.02 0.02 0.03 0.03 0.03
0.10 0.09 0.09 0.09 0.08 0.08 0.08 0.08 0.07 0.06 0.06 0.06 0.05 0.05 0.05 0.05 0.06 0.06 0.06 0.05 0.04 0.03 0.03 0.02 0.02 0.02 0.02 0.02 0.02 0.02 0.02 0.02 0.02 0.03 0.02 0.02 0.02 0.02
MSLP
1015.65 1016.00 1016.48 1017.07 1017.74 1018.45 1019.16 1019.84 1020.46 1021.00 1021.46 1021.84 1022.14 1022.38 1022.56 1022.69 1022.77 1022.81 1022.84 1022.85 1022.87 1022.90 1022.95 1023.01 1023.06 1023.10 1023.11 1023.07 1022.98 1022.83 1022.64 1022.43 1022.22 1022.02 1021.85 1021.71 1021.61 1021.53
1015.99 1016.25 1016.60 1017.06 1017.59 1018.18 1018.80 1019.41 1020.01 1020.56 1021.07 1021.51 1021.89 1022.19 1022.43 1022.60 1022.70 1022.75 1022.77 1022.76 1022.76 1022.76 1022.78 1022.81 1022.85 1022.88 1022.89 1022.87 1022.80 1022.69 1022.56 1022.40 1022.24 1022.09 1021.96 1021.85 1021.77 1021.70
1016.29 1016.47 1016.73 1017.07 1017.48 1017.96 1018.48 1019.03 1019.59 1020.15 1020.68 1021.18 1021.61 1021.98 1022.28 1022.49 1022.63 1022.69 1022.71 1022.69 1022.66 1022.63 1022.61 1022.61 1022.62 1022.63 1022.64 1022.61 1022.57 1022.49 1022.40 1022.29 1022.19 1022.10 1022.02 1021.95 1021.90 1021.84
1016.51 1016.64 1016.82 1017.08 1017.40 1017.78 1018.23 1018.72 1019.25 1019.80 1020.34 1020.87 1021.35 1021.77 1022.11 1022.36 1022.53 1022.61 1022.63 1022.60 1022.55 1022.49 1022.44 1022.40 1022.37 1022.35 1022.33 1022.31 1022.27 1022.21 1022.16 1022.10 1022.06 1022.02 1022.00 1021.98 1021.96 1021.93
1016.60 1016.71 1016.86 1017.07 1017.33 1017.66 1018.05 1018.49 1018.99 1019.52 1020.06 1020.60 1021.10 1021.54 1021.91 1022.19 1022.37 1022.47 1022.49 1022.46 1022.40 1022.32 1022.23 1022.16 1022.09 1022.04 1021.99 1021.94 1021.90 1021.86 1021.83 1021.82 1021.82 1021.84 1021.88 1021.92 1021.95 1021.96
1016.55 1016.67 1016.82 1017.02 1017.26 1017.56 1017.92 1018.33 1018.80 1019.30 1019.82 1020.34 1020.83 1021.28 1021.65 1021.94 1022.13 1022.24 1022.28 1022.25 1022.18 1022.08 1021.98 1021.88 1021.78 1021.69 1021.61 1021.53 1021.48 1021.44 1021.43 1021.44 1021.49 1021.57 1021.66 1021.76 1021.85 1021.92
1016.37 1016.51 1016.69 1016.90 1017.16 1017.46 1017.81 1018.20 1018.64 1019.11 1019.59 1020.08 1020.54 1020.96 1021.32 1021.60 1021.79 1021.91 1021.96 1021.94 1021.88 1021.79 1021.68 1021.56 1021.43 1021.32 1021.21 1021.11 1021.03 1020.99 1020.98 1021.02 1021.10 1021.22 1021.37 1021.53 1021.68 1021.80
1016.07 1016.25 1016.47 1016.73 1017.02 1017.34 1017.69 1018.08 1018.48 1018.91 1019.35 1019.79 1020.20 1020.58 1020.90 1021.16 1021.35 1021.48 1021.54 1021.55 1021.51 1021.44 1021.34 1021.22 1021.09 1020.96 1020.83 1020.71 1020.62 1020.56 1020.55 1020.60 1020.70 1020.85 1021.03 1021.24 1021.44 1021.62
1015.68 1015.92 1016.19 1016.50 1016.83 1017.18 1017.54 1017.92 1018.30 1018.69 1019.07 1019.45 1019.80 1020.13 1020.41 1020.65 1020.84 1020.98 1021.07 1021.10 1021.10 1021.06 1020.99 1020.90 1020.78 1020.64 1020.50 1020.37 1020.26 1020.19 1020.17 1020.22 1020.32 1020.49 1020.70 1020.93 1021.18 1021.40
1015.28 1015.57 1015.89 1016.25 1016.62 1016.99 1017.36 1017.72 1018.08 1018.42 1018.75 1019.06 1019.36 1019.63 1019.88 1020.10 1020.29 1020.44 1020.56 1020.64 1020.69 1020.70 1020.67 1020.61 1020.51 1020.39 1020.26 1020.12 1020.01 1019.92 1019.89 1019.92 1020.02 1020.18 1020.39 1020.64 1020.89 1021.14
1014.92 1015.25 1015.61 1016.00 1016.39 1016.78 1017.15 1017.50 1017.82 1018.12 1018.39 1018.65 1018.90 1019.12 1019.34 1019.55 1019.74 1019.91 1020.06 1020.19 1020.29 1020.35 1020.38 1020.36 1020.30 1020.21 1020.09 1019.96 1019.85 1019.76 1019.71 1019.73 1019.80 1019.94 1020.13 1020.36 1020.61 1020.85
1014.63 1014.99 1015.38 1015.79 1016.19 1016.58 1016.94 1017.26 1017.55 1017.81 1018.04 1018.25 1018.45 1018.64 1018.83 1019.03 1019.23 1019.42 1019.61 1019.78 1019.93 1020.04 1020.11 1020.14 1020.12 1020.07 1019.97 1019.87 1019.76 1019.67 1019.61 1019.61 1019.65 1019.76 1019.91 1020.10 1020.31 1020.51
1014.42 1014.81 1015.21 1015.62 1016.02 1016.39 1016.73 1017.03 1017.28 1017.50 1017.70 1017.87 1018.04 1018.21 1018.38 1018.57 1018.77 1018.98 1019.20 1019.40 1019.58 1019.74 1019.85 1019.92 1019.94 1019.92 1019.86 1019.78 1019.68 1019.60 1019.54 1019.51 1019.53 1019.60 1019.70 1019.83 1019.97 1020.12
1014.24 1014.65 1015.05 1015.46 1015.85 1016.20 1016.52 1016.79 1017.02 1017.22 1017.39 1017.54 1017.68 1017.83 1018.00 1018.18 1018.39 1018.60 1018.83 1019.05 1019.25 1019.43 1019.57 1019.67 1019.72 1019.73 1019.70 1019.64 1019.56 1019.49 1019.43 1019.39 1019.38 1019.40 1019.45 1019.51 1019.58 1019.66
1014.01 1014.43 1014.84 1015.24 1015.62 1015.97 1016.28 1016.54 1016.76 1016.94 1017.09 1017.23 1017.37 1017.51 1017.67 1017.85 1018.05 1018.26 1018.48 1018.70 1018.90 1019.09 1019.23 1019.35 1019.42 1019.44 1019.44 1019.40 1019.35 1019.29 1019.24 1019.19 1019.15 1019.13 1019.12 1019.12 1019.12 1019.12
1013.61 1014.05 1014.48 1014.89 1015.27 1015.63 1015.94 1016.21 1016.43 1016.62 1016.78 1016.93 1017.06 1017.21 1017.37 1017.54 1017.73 1017.93 1018.13 1018.34 1018.53 1018.70 1018.84 1018.95 1019.02 1019.06 1019.07 1019.05 1019.02 1018.97 1018.92 1018.87 1018.81 1018.75 1018.70 1018.63 1018.56 1018.49
1012.95 1013.41 1013.86 1014.30 1014.72 1015.10 1015.44 1015.74 1015.99 1016.21 1016.39 1016.56 1016.71 1016.87 1017.03 1017.20 1017.38 1017.57 1017.76 1017.94 1018.11 1018.27 1018.39 1018.49 1018.55 1018.59 1018.61 1018.60 1018.57 1018.53 1018.48 1018.42 1018.35 1018.27 1018.17 1018.06 1017.93 1017.79
1011.96 1012.45 1012.95 1013.43 1013.90 1014.33 1014.72 1015.07 1015.37 1015.63 1015.86 1016.06 1016.24 1016.42 1016.59 1016.77 1016.96 1017.14 1017.33 1017.50 1017.65 1017.79 1017.90 1017.98 1018.03 1018.06 1018.07 1018.06 1018.03 1017.99 1017.94 1017.87 1017.79 1017.68 1017.55 1017.41 1017.24 1017.06
1010.66 1011.19 1011.74 1012.28 1012.81 1013.31 1013.76 1014.17 1014.54 1014.85 1015.12 1015.37 1015.59 1015.80 1016.01 1016.21 1016.41 1016.61 1016.81 1016.98 1017.14 1017.27 1017.37 1017.44 1017.49 1017.51 1017.50 1017.48 1017.45 1017.40 1017.33 1017.26 1017.16 1017.04 1016.89 1016.72 1016.53 1016.33
1009.17 1009.73 1010.32 1010.92 1011.51 1012.07 1012.60 1013.07 1013.48 1013.85 1014.18 1014.47 1014.74 1014.99 1015.23 1015.48 1015.72 1015.95 1016.18 1016.38 1016.56 1016.71 1016.82 1016.90 1016.94 1016.95 1016.94 1016.91 1016.86 1016.79 1016.71 1016.62 1016.51 1016.38 1016.22 1016.04 1015.84 1015.63
1007.66 1008.24 1008.86 1009.50 1010.13 1010.74 1011.30 1011.81 1012.27 1012.68 1013.04 1013.37 1013.68 1013.98 1014.27 1014.56 1014.86 1015.15 1015.42 1015.68 1015.91 1016.10 1016.24 1016.34 1016.40 1016.41 1016.40 1016.35 1016.28 1016.20 1016.11 1016.00 1015.88 1015.74 1015.58 1015.41 1015.21 1015.00
1006.35 1006.92 1007.54 1008.18 1008.82 1009.43 1010.01 1010.53 1011.00 1011.42 1011.80 1012.15 1012.49 1012.82 1013.15 1013.50 1013.85 1014.21 1014.55 1014.88 1015.17 1015.42 1015.62 1015.76 1015.84 1015.88 1015.86 1015.81 1015.74 1015.64 1015.53 1015.41 1015.28 1015.14 1014.99 1014.83 1014.65 1014.47
1005.43 1005.96 1006.53 1007.14 1007.74 1008.32 1008.86 1009.35 1009.79 1010.19 1010.56 1010.91 1011.25 1011.60 1011.97 1012.36 1012.77 1013.19 1013.60 1014.00 1014.37 1014.68 1014.94 1015.13 1015.26 1015.32 1015.32 1015.28 1015.20 1015.10 1014.98 1014.86 1014.73 1014.60 1014.46 1014.32 1014.17 1014.01
Thickness
5697 5696 5695 5694 5694 5694 5693 5691 5685 5680 5681 5686 5689 5693 5694 5695 5695 5695 5695 5694 5694 5693 5692 5691 5690 5688 5687 5686 5686 5684 5683 5682 5681 5680 5679 5678 5678 5677
5693 5692 5690 5690 5690 5690 5689 5688 5686 5682 5679 5683 5685 5688 5690 5691 5691 5691 5692 5691 5691 5690 5689 5688 5687 5686 5685 5684 5683 5681 5680 5679 5678 5677 5676 5675 5674 5674
5689 5688 5686 5686 5685 5684 5684 5684 5682 5681 5677 5679 5682 5684 5685 5686 5687 5687 5688 5688 5687 5687 5686 5686 5685 5684 5683 5681 5680 5678 5677 5676 5675 5674 5673 5672 5671 5671
5684 5683 5682 5682 5680 5679 5679 5678 5678 5677 5675 5673 5675 5677 5679 5681 5682 5682 5683 5684 5683 5683 5683 5682 5682 5681 5680 5679 5678 5676 5675 5673 5672 5671 5670 5669 5668 5667
5680 5679 5677 5676 5674 5674 5673 5673 5673 5673 5672 5669 5669 5671 5673 5675 5676 5677 5678 5678 5679 5679 5679 5678 5678 5677 5677 5676 5675 5674 5672 5671 5670 5668 5667 5666 5666 5665
5676 5675 5674 5673 5671 5670 5669 5668 5668 5666 5666 5665 5664 5665 5666 5668 5669 5668 5669 5671 5672 5674 5674 5674 5674 5674 5673 5673 5672 5671 5670 5668 5667 5666 5665 5664 5663 5662
5671 5670 5670 5670 5669 5668 5666 5664 5663 5661 5659 5659 5658 5659 5660 5661 5662 5663 5663 5664 5666 5668 5668 5669 5669 5669 5669 5669 5668 5668 5667 5666 5665 5664 5663 5662 5661 5660
5665 5665 5665 5665 5664 5664 5663 5662 5661 5658 5655 5654 5653 5653 5655 5657 5658 5658 5656 5656 5657 5662 5661 5663 5664 5664 5665 5665 5666 5665 5665 5664 5663 5661 5660 5659 5658 5656
5660 5659 5660 5660 5659 5658 5657 5657 5657 5657 5656 5653 5651 5652 5652 5654 5654 5653 5652 5651 5652 5656 5656 5656 5659 5659 5661 5662 5663 5662 5662 5661 5660 5658 5657 5656 5655 5654
5656 5655 5653 5653 5653 5652 5651 5650 5650 5651 5652 5652 5652 5652 5652 5652 5651 5651 5650 5649 5650 5651 5652 5650 5653 5654 5658 5659 5659 5659 5658 5658 5656 5655 5654 5653 5652 5650
5651 5650 5649 5648 5648 5647 5645 5643 5643 5645 5647 5648 5649 5648 5649 5649 5648 5645 5643 5641 5640 5644 5646 5645 5647 5649 5651 5653 5655 5655 5654 5654 5653 5652 5651 5649 5648 5645
5645 5645 5644 5644 5643 5641 5639 5637 5636 5638 5640 5641 5641 5642 5643 5644 5643 5641 5639 5636 5634 5635 5640 5639 5640 5641 5642 5646 5648 5649 5649 5649 5649 5648 5647 5646 5644 5641
5639 5638 5639 5639 5638 5636 5634 5633 5633 5633 5633 5633 5633 5634 5635 5636 5636 5636 5636 5634 5631 5631 5635 5634 5633 5633 5633 5635 5639 5641 5642 5643 5643 5643 5642 5641 5640 5637
5635 5634 5634 5633 5632 5630 5629 5629 5628 5627 5626 5626 5626 5626 5627 5628 5629 5630 5630 5630 5630 5630 5631 5629 5628 5627 5626 5626 5629 5632 5634 5636 5636 5637 5637 5636 5635 5633
5631 5630 5629 5628 5626 5624 5624 5623 5622 5621 5620 5619 5619 5620 5622 5623 5623 5623 5624 5624 5624 5624 5624 5624 5623 5622 5621 5620 5622 5624 5625 5628 5630 5630 5630 5630 5629 5627
5625 5624 5623 5622 5620 5619 5618 5616 5615 5615 5615 5614 5614 5615 5615 5615 5616 5616 5615 5615 5614 5616 5618 5618 5618 5617 5615 5616 5616 5617 5618 5619 5622 5622 5622 5623 5622 5622
5620 5617 5615 5614 5612 5611 5610 5610 5609 5608 5608 5608 5608 5607 5608 5608 5608 5608 5608 5608 5606 5607 5608 5610 5611 5611 5611 5610 5609 5610 5611 5611 5613 5614 5613 5613 5615 5616
5613 5610 5609 5609 5608 5607 5605 5604 5603 5602 5602 5602 5602 5601 5601 5601 5601 5602 5601 5600 5600 5600 5601 5602 5602 5601 5601 5602 5604 5603 5603 5604 5605 5605 5604 5604 5606 5609
5606 5606 5605 5604 5603 5602 5601 5599 5598 5598 5597 5596 5596 5595 5595 5595 5595 5595 5594 5593 5593 5594 5594 5595 5594 5592 5590 5591 5596 5597 5596 5596 5596 5596 5596 5596 5598 5601
5601 5601 5600 5599 5598 5597 5596 5595 5593 5592 5591 5590 5590 5589 5589 5588 5588 5588 5587 5587 5587 5586 5586 5587 5587 5586 5585 5585 5586 5588 5589 5588 5588 5588 5588 5589 5590 5593
5597 5596 5596 5595 5594 5593 5592 5590 5589 5587 5586 5585 5584 5584 5583 5582 5581 5581 5581 5580 5579 5578 5578 5579 5581 5582 5581 5578 5576 5578 5580 5581 5581 5580 5580 5579 5580 5582
5591 5591 5590 5590 5589 5587 5586 5585 5583 5582 5580 5579 5578 5578 5576 5575 5574 5574 5573 5573 5572 5572 5571 5572 5574 5573 5570 5568 5568 5569 5570 5572 5574 5574 5574 5574 5572 5573
5584 5584 5583 5582 5582 5581 5580 5578 5577 5575 5574 5572 5571 5570 5569 5568 5567 5566 5565 5565 5564 5563 5563 5563 5563 5563 5562 5561 5560 5560 5561 5563 5563 5564 5566 5567 5567 5568